Tracking 27380 objects as of 6-Jun-2023
HD Live streaming from Space Station
objects crossing your sky now

BREEZE-KM R/B

Track BREEZE-KM R/B now!
10-day predictions


NORAD ID: 41580
Int'l Code: 2016-034B
Perigee: 661.9 km
Apogee: 967.6 km
Inclination: 99.2 °
Period: 101.0 minutes
Semi major axis: 7185 km
RCS: Unknown
Launch date: June 4, 2016
Source: Commonwealth of Independent States (former USSR) (CIS)
Launch site: PLESETSK MISSILE AND SPACE COMPLEX (PKMTR)

Note: This is a ROCKET BODY
Your satellite tracking list
Your tracking list is empty




NASA's NSSDC Master Catalog

Two Line Element Set (TLE):
1 41580U 16034B   23156.39859954  .00000180  00000-0  77686-4 0  9998
2 41580  99.1922 309.4634 0212704 123.0240 239.1571 14.25254590364142
Source of the keplerian elements: AFSPC